This is the latest recevied weather packets stored in our database for station/object KJ5IIV. If no packets are shown the sender has not sent any weather packets the latest 10 day(s).
| Time | Temp. | Humidity | Pressure | Rain* | Wind** | Luminosity | Snow |
|---|---|---|---|---|---|---|---|
| 1777674925 | 15.56° C | 75% | 1014.7 hPa | 0 mm | - | 85 W/m² | - |
| 1777674622 | 15.56° C | 74% | 1014.9 hPa | 0 mm | - | 122 W/m² | - |
| 1777674321 | 15.56° C | 76% | 1014.8 hPa | 0 mm | - | 97 W/m² | - |
| 1777674016 | 15.56° C | 73% | 1014.8 hPa | 0 mm | - | 74 W/m² | - |
| 1777673711 | 15.56° C | 73% | 1014.8 hPa | 0 mm | - | 70 W/m² | - |
| 1777673409 | 16.11° C | 74% | 1014.6 hPa | 0 mm | - | 74 W/m² | - |
| 1777673107 | 16.11° C | 74% | 1014.2 hPa | 0 mm | - | 114 W/m² | - |
| 1777672803 | 16.11° C | 72% | 1013.9 hPa | 0 mm | - | 108 W/m² | - |
| 1777672499 | 16.11° C | 73% | 1013.7 hPa | 0 mm | - | 150 W/m² | - |
| 1777672195 | 16.11° C | 72% | 1013.7 hPa | 0 mm | - | 146 W/m² | - |
| 1777671890 | 16.11° C | 72% | 1013.9 hPa | 0 mm | - | 170 W/m² | - |
| 1777671586 | 16.11° C | 73% | 1013.9 hPa | 0 mm | - | 184 W/m² | - |
| 1777671284 | 15.56° C | 74% | 1014.3 hPa | 0 mm | - | 169 W/m² | - |
| 1777670978 | 15.56° C | 70% | 1014.4 hPa | 0 mm | - | 138 W/m² | - |
| 1777670676 | 16.11° C | 71% | 1014.3 hPa | 0 mm | - | 144 W/m² | - |
| 1777670372 | 16.11° C | 71% | 1014.5 hPa | 0 mm | - | 120 W/m² | - |
| 1777670070 | 16.11° C | 71% | 1014.5 hPa | 0 mm | - | 128 W/m² | - |
| 1777669767 | 16.11° C | 69% | 1014.6 hPa | 0 mm | - | 161 W/m² | - |
| 1777669464 | 16.11° C | 69% | 1014.9 hPa | 0 mm | - | 188 W/m² | - |
| 1777669161 | 16.11° C | 69% | 1015.1 hPa | 0 mm | - | 147 W/m² | - |
| 1777668858 | 16.11° C | 70% | 1015.2 hPa | 0 mm | - | 144 W/m² | - |
| 1777668555 | 16.11° C | 70% | 1015.2 hPa | 0 mm | - | 155 W/m² | - |
| 1777668250 | 16.11° C | 68% | 1015.3 hPa | 0 mm | - | 149 W/m² | - |
| 1777667946 | 15.56° C | 69% | 1015.6 hPa | 0 mm | - | 128 W/m² | - |
| 1777667644 | 16.11° C | 67% | 1015.6 hPa | 0 mm | - | 122 W/m² | - |
* Rain latest hour (hover to see other rain measurements)
** Current wind speed in m/s (hover to see current wind gust speed)